Flag for U.S.A. Weather past 2 weeks in Warren, Michigan, U.S.A.

Now
67 °F

Sunny.


Feels Like: 67 °F
Forecast: 55 / 82 °F
Wind: No wind

Location: Detroit City Airport

Current Time: Jul 3, 2015 at 10:20:43 PM

Latest Report: Jul 3, 2015 at 9:53 PM


Visibility: 10 mi

Pressure: 29.92 "Hg

Humidity: 57%

Dew point: 51 °F

Location of WarrenLocation

Historic Weather in Warren — Graph

°F

Warren temperature yesterday

Maximum temperature yesterday: 72 °F (at 12:53 PM)
Minimum temperature yesterday: 58 °F (at 5:53 AM)
Average temperature yesterday: 65 °F

Past Weeks' High & Low Weather Summary

 TemperatureHumidityPressure
High84 °F (Jun 21, 5:53 PM)97% (Jul 1, 1:01 AM)30.15 "Hg (Jul 1, 1:01 AM)
Low53 °F (Jun 20, 5:53 AM)31% (Jun 24, 1:53 PM)29.69 "Hg (Jun 22, 11:53 PM)
Average68 °F70%29.92 "Hg
* Reported Jun 18 8:53 PM — Jul 3 8:53 PM, Warren, Weather by CustomWeather, © 2015

Note: Actual official high and low records may vary slightly from our data, if they occured in-between our weather recording intervals... More about our weather records

Advertising

Warren weather history for previous 24 hours

 ConditionsComfort  
Time TempWeatherWind HumidityBarometerVisibility
8:53 PM
Fri, Jul 3
67 °FSunny.3 mph57%29.92 "Hg10 mi
7:53 PM70 °FSunny.6 mph49%29.92 "Hg10 mi
6:53 PM71 °FSunny.6 mph53%29.91 "Hg10 mi
5:53 PM71 °FSunny.7 mph55%29.93 "Hg10 mi
4:53 PM71 °FSunny.7 mph57%29.94 "Hg10 mi
3:53 PM72 °FSunny.8 mph57%29.96 "Hg10 mi
2:53 PM72 °FSunny.5 mph53%29.98 "Hg10 mi
1:53 PM72 °FSunny.6 mph52%29.98 "Hg10 mi
12:53 PM70 °FSunny.7 mph55%29.98 "Hg10 mi
11:53 AM70 °FSunny.6 mph55%29.98 "Hg10 mi
10:53 AM66 °FSunny.No wind61%29.99 "Hg10 mi
9:53 AM65 °FSunny.No wind66%30.01 "Hg10 mi
8:53 AM61 °FSunny.5 mph72%30.01 "Hg10 mi
7:53 AM57 °FSunny.3 mph78%30.01 "Hg10 mi
6:53 AM54 °FClear.6 mph83%30.00 "Hg10 mi
5:53 AM53 °FClear.5 mph83%29.99 "Hg10 mi
4:53 AM54 °FClear.3 mph80%29.99 "Hg10 mi
3:53 AM55 °FClear.No wind74%30.01 "Hg10 mi
2:53 AM56 °FClear.No wind75%30.00 "Hg10 mi
1:53 AM57 °FClear.No wind72%30.02 "Hg10 mi
12:53 AM58 °FClear.3 mph70%30.01 "Hg10 mi
11:53 PM
Thu, Jul 2
60 °FClear.5 mph69%30.01 "Hg10 mi
10:53 PM61 °FClear.5 mph62%30.01 "Hg10 mi
Weather by CustomWeather, © 2015

See weather overviewHow to use our weather pages